Location: Chassagnes
(44.4047°N, 4.1657°E)
Time: 12:22:17
(UTC+00:00)

Okean-O - Pass Details

Date: 27 October 2020
Orbit: 638 x 641 km, 98.2° (Epoch: 23 November)

Event Time Altitude Azimuth Distance (km) Brightness Sun altitude
Rises 18:48:09 0° 186° (S) 2,932 6.1 -23.6°
Reaches altitude 10° 18:50:29 10° 195° (SSW) 2,028 5.3 -24.0°
Maximum altitude 18:54:34 36° 262° (W) 1,013 4.1 -24.7°
Drops below altitude 10° 18:58:41 10° 330° (NNW) 2,042 5.6 -25.4°
Sets 19:01:03 0° 339° (NNW) 2,956 6.4 -25.9°
